This is the latest recevied weather packets stored in our database for station/object N5PRN. If no packets are shown the sender has not sent any weather packets the latest 10 day(s).
| Time | Temp. | Humidity | Pressure | Rain* | Wind** | Luminosity | Snow |
|---|---|---|---|---|---|---|---|
| 1777651769 | 13.33° C | 96% | 1015.2 hPa | 1.27 mm | - | 77 W/m² | - |
| 1777651465 | 13.33° C | 96% | 1015 hPa | 1.78 mm | - | 70 W/m² | - |
| 1777651163 | 13.33° C | 96% | 1014.9 hPa | 3.05 mm | - | 76 W/m² | - |
| 1777650860 | 13.33° C | 96% | 1014.9 hPa | 3.05 mm | - | 59 W/m² | - |
| 1777650556 | 13.33° C | 96% | 1015 hPa | 3.05 mm | - | 57 W/m² | - |
| 1777650254 | 13.33° C | 96% | 1015.2 hPa | 3.05 mm | - | 43 W/m² | - |
| 1777649951 | 13.33° C | 96% | 1015.4 hPa | 4.32 mm | - | 58 W/m² | - |
| 1777649649 | 13.33° C | 96% | 1015.3 hPa | 6.1 mm | - | 51 W/m² | - |
| 1777649343 | 13.33° C | 96% | 1015.5 hPa | 6.6 mm | - | 42 W/m² | - |
| 1777649041 | 13.33° C | 96% | 1015.7 hPa | 6.6 mm | - | 46 W/m² | - |
| 1777648739 | 13.33° C | 96% | 1015.9 hPa | 6.1 mm | - | 46 W/m² | - |
| 1777648435 | 13.89° C | 96% | 1015.9 hPa | 4.32 mm | - | 45 W/m² | - |
| 1777648131 | 13.33° C | 96% | 1016 hPa | 4.32 mm | - | 33 W/m² | - |
| 1777647827 | 13.33° C | 96% | 1015.9 hPa | 6.1 mm | - | 22 W/m² | - |
| 1777647524 | 13.33° C | 96% | 1015.9 hPa | 6.1 mm | - | 25 W/m² | - |
| 1777647221 | 13.89° C | 96% | 1015.8 hPa | 6.1 mm | - | 36 W/m² | - |
| 1777646918 | 13.89° C | 96% | 1015.9 hPa | 6.1 mm | - | 47 W/m² | - |
| 1777646613 | 13.89° C | 96% | 1015.7 hPa | 4.83 mm | - | 51 W/m² | - |
| 1777646310 | 13.89° C | 96% | 1015.5 hPa | 4.83 mm | - | 41 W/m² | - |
| 1777646007 | 13.89° C | 96% | 1015 hPa | 4.32 mm | - | 42 W/m² | - |
| 1777645704 | 13.89° C | 96% | 1015 hPa | 3.05 mm | - | 39 W/m² | - |
| 1777645400 | 13.89° C | 96% | 1015.2 hPa | 3.05 mm | - | 40 W/m² | - |
| 1777645096 | 14.44° C | 96% | 1014.8 hPa | 3.05 mm | - | 41 W/m² | - |
| 1777644793 | 14.44° C | 96% | 1014.8 hPa | 3.05 mm | - | 42 W/m² | - |
| 1777644491 | 14.44° C | 96% | 1015 hPa | 3.05 mm | - | 45 W/m² | - |
* Rain latest hour (hover to see other rain measurements)
** Current wind speed in m/s (hover to see current wind gust speed)